Location: Devore Heights
(34.2372°N, 117.4156°W)
Time: 18:00:43
(UTC+00:00)

Vanguard 1 Rocket - Pass Details

Date: 21 September 2024
Orbit: 650 x 4218 km, 34.3° (Epoch: 04 October)

Event Time Altitude Azimuth Distance (km) Brightness Sun altitude
Rises 07:42:31 0° 205° (SSW) 3,773 - -55.3°
Reaches altitude 10° 07:45:03 10° 193° (SSW) 3,124 - -55.3°
Maximum altitude 07:51:51 31° 134° (SE) 2,706 - -55.2°
Exits shadow 07:59:30 18° 89° (E) 4,345 10.8 -55.1°
Drops below altitude 10° 08:03:22 10° 80° (E) 5,398 11.4 -55.0°
Sets 08:09:29 0° 72° (ENE) 7,047 12.2 -54.7°
